Showing default

M-SEL, 63231

Orbit data source: Space-Track

M-SEL, 63231 is an American payload satellite in SSO that was launched on Sat, 15 Mar 2025 UTC via an FALCON 9 launch vehicle from the Air Force Western Test Range (AFWTR). Payload-class satellites include a variety of spacecraft equipped with specific instruments for various scientific and technological missions. These include communications satellites like Starlink; space stations such as the ISS; scientific satellites like the Hubble; Earth observation satellites from companies like Planet Labs, Umbra, and HawkEye 360; GPS; miniature CubeSats for education and research; and military/defense satellites.

Loading next visibility...
Identifier
63231, 2025-052X
Orbit
SSO
Country
Flag of USUS
Related business
Manufacturer
Astro Digital
Mission
Operational Commercial Technology
Bus & Motor
CORVUS-MICRO, Unknown motor
Mass
32 kg wet, 32 kg dry
Launch date (UTC)
2025-03-15 (9 months ago)
Launch vehicle
FALCON 9
Launch site
Air Force Western Test Range (AFWTR)
Object type
Payload
Rocket body
Debris
Shape & HBR
Box, 0.5 m
Radar Cross Section
0.400 m², Medium (>0.1 m² and < 1m²)

Expand to show TLE details & history
Last TLE update: 17 hours ago

TLE from 17 hours ago
0 M-SEL
1 63231U 25052X   25341.13046767  .00015387  00000-0  67141-3 0  9994
2 63231  97.4118 232.0029 0007030  98.9404 261.2629 15.22217374 40667
Epoch: 2025-12-07T03:07Z
TLE epoch observation values (Epoch: 2025-12-07T03:07:52.406Z)
Latitude
0.00003°
Longitude
108.88627°
Altitude
502.985 km
Speed
7.612 km/s
True Right ascension
15h 28m 00s
True Declination
0° 00' 00"
Sunlit
Object was in daylight at epoch
Visualization orbit readout
Latitude
Unknown
Longitude
Unknown
Altitude
Unknown
Speed
Unknown
Apparent Right ascension
Unknown
Apparent Declination
Unknown
Sunlit
N/A
Visualization observer readout
Local Sidereal Time
18:35:53
Azimuth
Unknown
Elevation
Unknown
Doppler factor
Unknown
Orbital elements
Apogee altitude
500.95 km
Perigee altitude
491.284 km
Semi-major axis
6,874.254 km
Eccentricity
0.0007
Inclination
97.4118°
RAAN
232.0029°
Arg. of periapsis
98.9404°
True anomaly
261.18329°
Mean anomaly
261.2629°
Eccentric anomaly
261.22309°
Mean motion
3.80807 °/min
Orbital period
94.54 mins
BSTAR
0.00067141
Loading maneuver chart data...
Computing Atmospheric mass density...
Loading historical data...
Loading historical data...
Loading historical data...
Loading historical data...
Loading historical data...
Loading historical data...
Loading historical data...

Documentation

Showing up to 5 results
|